Location: Newark
(45.8667°N, 9.7333°E)
Time: 20:38:01
(UTC+00:00)

Vanguard 3 - Pass Details

Date: 30 January 2020
Orbit: 508 x 3263 km, 33.3° (Epoch: 25 February)

Event Time Altitude Azimuth Distance (km) Brightness Sun altitude
Rises 18:27:53 0° 264° (W) 7,071 13.5 -21.8°
Reaches altitude 10° 18:32:41 10° 260° (W) 6,163 12.7 -22.6°
Maximum altitude 18:51:26 52° 193° (SSW) 3,511 10.3 -25.9°
Enters shadow 19:01:20 26° 133° (SE) 4,076 10.2 -27.6°
Drops below altitude 10° 19:05:55 10° 123° (ESE) 4,865 - -28.4°
Sets 19:09:12 0° 118° (ESE) 5,552 - -29.0°
